Location: *
(2.5500°S, 65.9667°W)
Time: 07:36:21
(UTC+00:00)

Tiros 1 despin weight - Pass Details

Date: 20 April 2024
Orbit: 578 x 621 km, 48.2° (Epoch: 27 May)

Event Time Altitude Azimuth Distance (km) Brightness Sun altitude
Rises 12:47:49 0° 197° (SSW) 2,786 ? 34.7°
Reaches altitude 10° 12:50:30 10° 181° (S) 1,886 ? 35.4°
Maximum altitude 12:53:50 22° 130° (SE) 1,295 ? 36.2°
Drops below altitude 10° 12:57:10 10° 80° (E) 1,888 ? 37.0°
Sets 12:59:51 0° 64° (ENE) 2,790 ? 37.6°
